Meteo Giornale » Osservazioni meteo Egitto » Cairo

ore: 14:00 - Osservazioni Meteo Cairo
Lat. 30° 8' N Lon. 31° 24' E Alt. 64 metri s.l.m.

sereno Africa/Cairo

34 °C

Sereno

Temp. 24 Ore

25 °C

35 °C

Nord/NOvest

9.3 Km/h

Dew point 16 °C

Umidità 34 %

Visibilità  10 Km

Il sole sorge alle ore 06:21

Il sole tramonta alle ore 19:36

Data e Ora Cielo e Fenomeni T °C DP °C Um. % Pres. hPa Vis. km Vento km/h
Oggi h: 14:00 sereno Sereno 34 16 34 1009 10 N/NO 9.3
Oggi h: 13:30 sereno Sereno 34 16 34 1009 10 N/NO 14.8
Oggi h: 13:00 sereno Sereno 33 17 38 1010 10 N/NO 18.5
Oggi h: 12:30 sereno Sereno 31 18 45 1010 10 N 9.3
Oggi h: 12:00 sereno Sereno 31 18 45 1010 10 N 9.3
Oggi h: 11:30 nuvoloso Nuvoloso 29 20 58 1010 10 N/NE 13
Oggi h: 11:00 nuvoloso Nuvoloso 29 20 58 1010 10 N/NE 13
Oggi h: 10:30 nuvoloso Nuvoloso 28 20 61 1010 10 N/NO 14.8
Oggi h: 10:00 nuvoloso Nuvoloso 28 20 61 1010 10 N/NO 14.8
Oggi h: 09:30 nuvoloso Nuvoloso 27 21 69 1010 10 N 13
Oggi h: 09:00 nuvoloso Nuvoloso 27 21 69 1010 10 N 13
Oggi h: 08:30 molto_nuvoloso Molto Nuvoloso 26 21 73 1010 10 N 16.7
Oggi h: 08:00 molto_nuvoloso Molto Nuvoloso 26 21 73 1010 10 N 16.7
Oggi h: 07:30 molto_nuvoloso Molto Nuvoloso 25 21 78 1010 10 N 16.7
Oggi h: 07:00 molto_nuvoloso Molto Nuvoloso 25 21 78 1010 10 N 16.7
Oggi h: 06:30 molto_nuvoloso Molto Nuvoloso 25 21 78 1009 10 N 13
Oggi h: 06:00 molto_nuvoloso Molto Nuvoloso 25 21 78 1009 10 N 13
Oggi h: 05:30 sereno Sereno 25 21 78 1009 10 N 16.7
Oggi h: 05:00 sereno Sereno 25 21 78 1009 10 N 16.7
Oggi h: 04:30 sereno Sereno 26 22 78 1009 10 N/NE 11.1
Oggi h: 04:00 sereno Sereno 26 22 78 1009 10 N/NE 11.1
Oggi h: 03:30 sereno Sereno 26 22 78 1009 10 N 14.8
Oggi h: 03:00 sereno Sereno 26 22 78 1009 10 N 11.1
Oggi h: 02:30 sereno Sereno 26 21 73 1009 10 NE 14.8
Oggi h: 02:00 sereno Sereno 27 21 69 1009 10 N/NE 13
Oggi h: 01:30 sereno Sereno 27 21 69 1009 10 N/NE 13
Oggi h: 01:00 sereno Sereno 27 21 69 1010 10 N 14.8
Oggi h: 00:30 sereno Sereno 27 21 69 1010 10 N 16.7
Oggi h: 00:00 sereno Sereno 28 21 65 1010 10 N 16.7
Ieri h: 23:30 sereno Sereno 28 21 65 1010 10 N/NO 20.3
Ieri h: 23:00 sereno Sereno 28 21 65 1010 10 N 18.5
Ieri h: 22:30 sereno Sereno 29 21 62 1009 10 N 22.2
Ieri h: 22:00 sereno Sereno 29 21 62 1009 10 N 24
Ieri h: 21:30 sereno Sereno 30 21 58 1009 10 N 25.9
Ieri h: 21:00 sereno Sereno 31 21 55 1009 10 N 22.2
Ieri h: 20:30 sereno Sereno 32 21 52 1008 10 N 24
Ieri h: 20:00 sereno Sereno 33 18 41 1008 10 N/NO 18.5
Ieri h: 19:30 sereno Sereno 33 17 38 1008 10 N/NO 18.5
Ieri h: 19:00 sereno Sereno 34 17 36 1007 10 N/NO 20.3
Ieri h: 18:30 sereno Sereno 34 16 34 1007 10 N/NO 16.7
Ieri h: 18:00 sereno Sereno 35 16 32 1007 10 N/NO 18.5
Ieri h: 17:30 sereno Sereno 35 17 34 1007 10 N/NO 18.5
Ieri h: 17:00 sereno Sereno 35 17 34 1008 10 N/NO 14.8
Ieri h: 16:30 sereno Sereno 35 16 32 1007 10 N/NO 18.5
Ieri h: 16:00 sereno Sereno 35 16 32 1007 10 N/NO 14.8
Ieri h: 15:30 sereno Sereno 35 16 32 1007 10 N 11.1
Ieri h: 15:00 sereno Sereno 34 17 36 1007 10 N 7.4